Overview Statistics Trail Chart Weather Telemetry Raw packets
 

This is the latest recevied weather packets stored in our database for station/object KE6YLF. If no packets are shown the sender has not sent any weather packets the latest 10 day(s).

<< 75 76 77 78 79 80 81 >>
Time Temp. Humidity Pressure Rain* Wind** Luminosity Snow
1788147804 30.56° C 43% 1075.6 hPa 0 mm - - -
1788147499 30.56° C 43% 1075.5 hPa 0 mm - - -
1788147199 30.56° C 43% 1075.6 hPa 0 mm - - -
1788146894 30.56° C 44% 1075.7 hPa 0 mm - - -
1788146588 30° C 45% 1075.7 hPa 0 mm - - -
1788146284 30° C 46% 1075.6 hPa 0 mm - - -
1788145983 30° C 47% 1075.7 hPa 0 mm - - -
1788145678 30° C 48% 1075.4 hPa 0 mm - - -
1788145376 29.44° C 50% 1075.4 hPa 0 mm - - -
1788145075 28.89° C 52% 1075.7 hPa 0 mm - - -
1788144770 28.89° C 56% 1075.6 hPa 0 mm - - -
1788144467 28.33° C 57% 1075.6 hPa 0 mm - - -
1788144165 28.33° C 58% 1075.6 hPa 0 mm - - -
1788143864 28.89° C 56% 1075.5 hPa 0 mm - - -
1788143563 28.89° C 56% 1075.5 hPa 0 mm - - -
1788143258 31.67° C 49% 1075.5 hPa 0 mm - - -
1788142957 31.67° C 48% 1075.2 hPa 0 mm - - -
1788142653 31.67° C 48% 1074.9 hPa 0 mm - - -
1788142352 32.78° C 44% 1074.7 hPa 0 mm - - -
1788142049 32.78° C 44% 1074.5 hPa 0 mm - - -
1788141748 33.89° C 42% 1074.3 hPa 0 mm - - -
1788141444 35° C 39% 1073.6 hPa 0 mm - - -
1788141139 35.56° C 39% 1073.5 hPa 0 mm - - -
1788140834 35.56° C 38% 1073.4 hPa 0 mm - - -
1788140529 35.56° C 38% 1073.3 hPa 0 mm - - -

* Rain latest hour (hover to see other rain measurements)
** Current wind speed in m/s (hover to see current wind gust speed)